Location: Fort Worth, Tx
(32.7431°N, 97.3695°W)
Time: 13:01:20
(UTC-05:00)

Vanguard 1 - Visible Passes

Search period start: 22 February 2024 00:00
Search period end: 03 March 2024 00:00
Orbit: 653 x 3826 km, 34.3° (Epoch: 21 February)

Date Brightness Start Highest point End Pass type
(mag) Time Alt. Az. Time Alt. Az. Time Alt. Az.
22 Feb 13.0 00:24:48 10° W 01:12:22 - E 00:36:23 49° W visible
22 Feb 13.1 03:25:04 36° SE 03:25:04 36° SE 03:32:43 10° SE visible
22 Feb 12.8 05:37:46 36° SW 05:37:56 36° SW 05:51:36 10° SSE visible
22 Feb 12.3 20:02:19 10° SW 20:13:54 54° SE 20:30:21 16° ENE visible
22 Feb 12.4 22:22:22 10° WSW 22:38:32 89° SSE 22:43:01 68° E visible
23 Feb 13.2 00:45:43 10° W 01:32:01 - ESE 00:55:41 42° W visible
23 Feb 13.1 03:44:43 38° SE 03:44:43 38° SE 03:52:56 10° SE visible
23 Feb 13.1 05:57:25 27° SW 05:57:49 27° SW 06:10:18 10° S visible
23 Feb 12.2 20:22:13 10° SW 20:34:13 65° SSE 20:49:36 21° ENE visible
23 Feb 12.4 22:43:00 10° W 22:59:44 87° N 23:02:16 77° ENE visible
24 Feb 13.4 01:06:37 10° W 01:51:41 - ESE 01:14:56 35° WNW visible
24 Feb 13.1 04:04:23 37° SSE 04:04:23 37° SSE 04:12:53 10° SE visible
24 Feb 13.3 06:17:05 20° SW 06:17:38 20° SW 06:28:08 10° SSW visible
24 Feb 12.2 20:42:19 10° WSW 20:54:44 74° SSE 21:08:48 26° ENE visible
24 Feb 12.5 23:03:41 10° W 23:21:00 86° N 23:21:27 85° NNE visible
25 Feb 13.5 01:27:31 10° WNW 02:11:20 10° ESE 02:11:22 10° ESE visible
25 Feb 13.1 04:24:03 34° S 04:24:03 34° S 04:32:31 10° SSE visible
25 Feb 13.5 06:36:44 13° WSW 06:37:26 13° WSW 06:43:52 10° SW visible
25 Feb 12.2 21:02:36 10° WSW 21:15:28 83° SSE 21:27:56 32° ENE visible
25 Feb 12.5 23:24:26 10° W 23:40:35 80° WNW 23:40:35 80° WNW visible
26 Feb 13.7 01:48:26 10° WNW 02:30:59 12° SE 02:31:54 10° SE visible
26 Feb 13.2 04:43:41 29° S 04:43:41 29° S 04:51:45 10° SSE visible
26 Feb 12.2 21:23:02 10° WSW 21:36:23 89° S 21:47:02 39° E visible
26 Feb 12.6 23:45:11 10° W 23:59:40 70° WNW 23:59:40 70° WNW visible
27 Feb 13.8 02:09:22 10° WNW 02:50:36 14° SE 02:52:11 10° SE visible
27 Feb 13.3 05:03:18 24° SSW 05:03:18 24° SSW 05:10:30 10° S visible
27 Feb 12.0 19:23:33 10° SW 19:33:15 62° SSE 19:51:13 10° ENE visible
27 Feb 12.3 21:43:33 10° W 21:57:25 87° N 22:06:05 47° E visible
28 Feb 12.8 00:05:55 10° WNW 00:18:43 60° W 00:18:43 60° W visible
28 Feb 13.8 02:30:24 10° WNW 03:10:11 15° SE 03:12:11 10° SE visible
28 Feb 13.5 05:22:53 18° SSW 05:22:53 18° SSW 05:28:27 10° S visible
28 Feb 11.9 19:43:37 10° WSW 19:53:40 73° SSE 20:12:28 10° ENE visible
28 Feb 12.3 22:04:08 10° W 22:18:33 85° N 22:25:06 56° E visible
29 Feb 12.9 00:26:40 10° WNW 00:37:44 50° W 00:37:44 50° W visible
29 Feb 13.8 03:29:44 15° SSE 03:29:44 15° SSE 03:31:51 10° SSE visible
29 Feb 13.7 05:42:26 12° SSW 05:42:26 12° SSW 05:44:46 10° SSW visible
29 Feb 11.9 20:03:50 10° WSW 20:14:16 83° SSE 20:31:28 15° ENE visible
29 Feb 12.3 22:24:45 10° W 22:39:42 86° N 22:44:06 66° E visible
01 Mar 13.1 00:47:25 10° WNW 00:56:44 41° W 00:56:44 41° W visible
01 Mar 13.8 03:49:14 14° SSE 03:49:14 14° SSE 03:51:07 10° SSE visible
01 Mar 12.0 20:24:11 10° WSW 20:35:02 90° S 20:50:27 20° E visible
01 Mar 12.3 22:45:21 10° W 23:00:52 88° N 23:03:05 78° E visible
02 Mar 13.3 01:08:13 10° WNW 01:15:44 33° W 01:15:44 33° W visible
02 Mar 13.8 04:08:41 12° S 04:08:41 12° S 04:09:53 10° S visible
02 Mar 12.0 20:44:38 10° W 20:55:56 86° N 21:09:26 26° E visible
